Orbital Elements at Epoch 2459200.5 (2020-Dec-17.0) TDB
Reference: JPL 17 (heliocentric ecliptic J2000)
Element | Value | Uncertainty (1-sigma) | Units |
e | .2263570588644387 | 9.5402e-08 | |
a | 2.522049826478395 | 9.3016e-09 | au |
q | 1.951166045447177 | 2.4202e-07 | au |
i | 9.99994081768603 | 1.0315e-05 | deg |
node | 300.5584754831905 | 2.1135e-05 | deg |
peri | 334.107751579285 | 3.1664e-05 | deg |
M | 145.8631072348914 | 1.9685e-05 | deg |
tp | 2458607.749566135398 (2019-May-04.24956614) | 8.0301e-05 | TDB |
period | 1462.948104126309 4.01 | 8.0932e-06 2.216e-08 | d yr |
n | .2460784487054628 | 1.3613e-09 | deg/d |
Q | 3.092933607509611 | 1.1407e-08 | au |
|
| | Orbit Determination Parameters
Additional Information
|